Time,TemperatureF,DewpointF,PressureIn,WindDirection,WindDirectionDegrees,WindSpeedMPH,WindSpeedGustMPH,Humidity,HourlyPrecipIn,Conditions,Clouds,dailyrainin,SoftwareType,DateUTC
2013-02-25 00:00:00,32.1,21.7,29.99,NW,315,0.0,0.0,65,0.00,,OVC,0.00,VWS V14.00,2013-02-25 05:00:00,
2013-02-25 00:05:00,32.1,21.7,29.99,WNW,292,0.0,0.0,65,0.00,,OVC,0.00,VWS V14.00,2013-02-25 05:05:00,
2013-02-25 00:10:00,32.1,21.7,29.99,WNW,292,0.0,0.0,65,0.00,,OVC,0.00,VWS V14.00,2013-02-25 05:10:00,
2013-02-25 00:15:00,32.1,21.7,29.99,West,270,0.8,0.8,65,0.00,,OVC,0.00,VWS V14.00,2013-02-25 05:15:00,
2013-02-25 00:20:00,31.8,21.4,30.00,NW,315,0.0,0.0,65,0.00,,OVC,0.00,VWS V14.00,2013-02-25 05:20:00,
2013-02-25 00:25:00,31.8,21.8,30.00,WNW,292,0.0,0.0,66,0.00,,OVC,0.00,VWS V14.00,2013-02-25 05:25:00,
2013-02-25 00:30:00,31.6,21.6,30.00,NW,315,0.0,0.0,66,0.00,,OVC,0.00,VWS V14.00,2013-02-25 05:30:00,
2013-02-25 00:35:00,31.6,21.6,30.00,WSW,248,0.0,0.0,66,0.00,,OVC,0.00,VWS V14.00,2013-02-25 05:35:00,
2013-02-25 00:40:00,31.6,21.6,30.00,WNW,292,0.0,0.0,66,0.00,,OVC,0.00,VWS V14.00,2013-02-25 05:40:00,
2013-02-25 00:45:00,31.6,21.6,30.00,NNW,338,0.0,0.0,66,0.00,,OVC,0.00,VWS V14.00,2013-02-25 05:45:00,
2013-02-25 00:50:00,31.6,21.6,30.01,WNW,292,1.1,1.1,66,0.00,,OVC,0.00,VWS V14.00,2013-02-25 05:50:00,
2013-02-25 00:55:00,31.6,21.6,30.01,WNW,292,0.0,0.0,66,0.00,,OVC,0.00,VWS V14.00,2013-02-25 05:55:00,
2013-02-25 01:00:00,31.4,21.7,30.01,WNW,292,0.0,0.0,67,0.00,,OVC,0.00,VWS V14.00,2013-02-25 06:00:00,
2013-02-25 01:05:00,31.2,21.5,30.01,NNW,338,0.0,0.0,67,0.00,,OVC,0.00,VWS V14.00,2013-02-25 06:05:00,
2013-02-25 01:10:00,31.2,21.5,30.01,West,270,1.3,1.3,67,0.00,,OVC,0.00,VWS V14.00,2013-02-25 06:10:00,
2013-02-25 01:15:00,31.2,21.5,30.01,WNW,292,3.1,3.1,67,0.00,,OVC,0.00,VWS V14.00,2013-02-25 06:15:00,
2013-02-25 01:20:00,31.2,21.5,30.01,NW,315,0.0,0.0,67,0.00,,OVC,0.00,VWS V14.00,2013-02-25 06:20:00,
2013-02-25 01:25:00,31.2,21.5,30.01,NNW,338,0.0,0.0,67,0.00,,OVC,0.00,VWS V14.00,2013-02-25 06:25:00,
2013-02-25 01:30:00,31.2,21.5,30.01,WSW,248,0.0,0.0,67,0.00,,OVC,0.00,VWS V14.00,2013-02-25 06:30:00,
2013-02-25 01:35:00,31.1,21.4,30.01,North,0,0.0,0.0,67,0.00,,OVC,0.00,VWS V14.00,2013-02-25 06:35:00,
2013-02-25 01:40:00,31.1,21.4,30.01,NW,315,0.0,0.0,67,0.00,,OVC,0.00,VWS V14.00,2013-02-25 06:40:00,
2013-02-25 01:45:00,31.1,21.4,30.02,West,270,0.0,0.0,67,0.00,,OVC,0.00,VWS V14.00,2013-02-25 06:45:00,
2013-02-25 01:50:00,31.1,21.4,30.02,WNW,292,0.0,0.0,67,0.00,,OVC,0.00,VWS V14.00,2013-02-25 06:50:00,
2013-02-25 01:55:00,31.1,21.4,30.02,West,270,1.7,1.7,67,0.00,,OVC,0.00,VWS V14.00,2013-02-25 06:55:00,
2013-02-25 02:00:00,30.9,21.6,30.02,WNW,292,0.0,0.0,68,0.00,,OVC,0.00,VWS V14.00,2013-02-25 07:00:00,
2013-02-25 02:05:00,30.9,21.6,30.02,NW,315,0.0,0.0,68,0.00,,OVC,0.00,VWS V14.00,2013-02-25 07:05:00,
2013-02-25 02:10:00,30.9,21.6,30.02,WNW,292,3.8,3.8,68,0.00,,OVC,0.00,VWS V14.00,2013-02-25 07:10:00,
2013-02-25 02:15:00,30.7,21.4,30.02,NW,315,0.0,0.0,68,0.00,,OVC,0.00,VWS V14.00,2013-02-25 07:15:00,
2013-02-25 02:20:00,30.7,21.4,30.03,WNW,292,0.0,0.0,68,0.00,,OVC,0.00,VWS V14.00,2013-02-25 07:20:00,
2013-02-25 02:25:00,30.7,21.4,30.02,WNW,292,0.0,0.0,68,0.00,,OVC,0.00,VWS V14.00,2013-02-25 07:25:00,
2013-02-25 02:30:00,30.7,21.8,30.02,NW,315,0.0,0.0,69,0.00,,OVC,0.00,VWS V14.00,2013-02-25 07:30:00,
2013-02-25 02:35:00,30.5,21.6,30.02,NNW,338,0.0,0.0,69,0.00,,OVC,0.00,VWS V14.00,2013-02-25 07:35:00,
2013-02-25 02:40:00,30.5,21.6,30.02,West,270,1.5,1.5,69,0.00,,OVC,0.00,VWS V14.00,2013-02-25 07:40:00,
2013-02-25 02:45:00,30.5,21.6,30.02,South,180,2.4,2.4,69,0.00,,OVC,0.00,VWS V14.00,2013-02-25 07:45:00,
2013-02-25 02:50:00,30.5,21.6,30.02,North,0,4.2,4.2,69,0.00,,OVC,0.00,VWS V14.00,2013-02-25 07:50:00,
2013-02-25 02:55:00,30.5,21.6,30.02,WNW,292,0.0,0.0,69,0.00,,OVC,0.00,VWS V14.00,2013-02-25 07:55:00,
2013-02-25 03:00:00,30.3,21.4,30.03,NW,315,0.0,0.0,69,0.00,,OVC,0.00,VWS V14.00,2013-02-25 08:00:00,
2013-02-25 03:05:00,30.3,21.4,30.03,NW,315,0.0,0.0,69,0.00,,OVC,0.00,VWS V14.00,2013-02-25 08:05:00,
2013-02-25 03:10:00,30.3,21.4,30.03,WNW,292,0.0,0.0,69,0.00,,OVC,0.00,VWS V14.00,2013-02-25 08:10:00,
2013-02-25 03:15:00,30.2,21.6,30.02,WNW,292,2.2,2.2,70,0.00,,OVC,0.00,VWS V14.00,2013-02-25 08:15:00,
2013-02-25 03:20:00,30.2,21.6,30.02,WNW,292,0.0,0.0,70,0.00,,OVC,0.00,VWS V14.00,2013-02-25 08:20:00,
2013-02-25 03:25:00,30.2,21.6,30.03,NNW,338,4.2,4.2,70,0.00,,OVC,0.00,VWS V14.00,2013-02-25 08:25:00,
2013-02-25 03:30:00,30.2,21.6,30.03,West,270,0.0,0.0,70,0.00,,OVC,0.00,VWS V14.00,2013-02-25 08:30:00,
2013-02-25 03:35:00,30.2,21.6,30.03,WNW,292,0.0,0.0,70,0.00,,OVC,0.00,VWS V14.00,2013-02-25 08:35:00,
2013-02-25 03:40:00,30.2,21.6,30.03,NW,315,0.0,0.0,70,0.00,,OVC,0.00,VWS V14.00,2013-02-25 08:40:00,
2013-02-25 03:45:00,30.2,21.6,30.03,WNW,292,0.0,0.0,70,0.00,,OVC,0.00,VWS V14.00,2013-02-25 08:45:00,
2013-02-25 03:50:00,30.2,21.6,30.03,WNW,292,0.0,0.0,70,0.00,,OVC,0.00,VWS V14.00,2013-02-25 08:50:00,
2013-02-25 03:55:00,30.0,21.4,30.04,NE,45,0.0,0.0,70,0.00,,OVC,0.00,VWS V14.00,2013-02-25 08:55:00,
2013-02-25 04:00:00,30.0,21.4,30.04,NNE,22,1.5,1.5,70,0.00,,OVC,0.00,VWS V14.00,2013-02-25 09:00:00,
2013-02-25 04:05:00,30.0,21.4,30.04,WNW,292,0.0,0.0,70,0.00,,OVC,0.00,VWS V14.00,2013-02-25 09:05:00,
2013-02-25 04:10:00,30.0,21.4,30.04,NW,315,0.0,0.0,70,0.00,,OVC,0.00,VWS V14.00,2013-02-25 09:10:00,
2013-02-25 04:15:00,30.0,21.4,30.04,North,0,0.0,0.0,70,0.00,,OVC,0.00,VWS V14.00,2013-02-25 09:15:00,
2013-02-25 04:20:00,30.0,21.4,30.04,NNW,338,0.0,0.0,70,0.00,,OVC,0.00,VWS V14.00,2013-02-25 09:20:00,
2013-02-25 04:25:00,30.0,21.8,30.04,West,270,0.0,0.0,71,0.00,,OVC,0.00,VWS V14.00,2013-02-25 09:25:00,
2013-02-25 04:30:00,30.0,21.8,30.04,WNW,292,0.0,0.0,71,0.00,,OVC,0.00,VWS V14.00,2013-02-25 09:30:00,
2013-02-25 04:35:00,30.0,21.8,30.05,NNW,338,0.0,0.0,71,0.00,,OVC,0.00,VWS V14.00,2013-02-25 09:35:00,
2013-02-25 04:40:00,30.0,21.8,30.05,WNW,292,0.0,0.0,71,0.00,,OVC,0.00,VWS V14.00,2013-02-25 09:40:00,
2013-02-25 04:45:00,29.8,21.6,30.05,WNW,292,2.9,2.9,71,0.00,,OVC,0.00,VWS V14.00,2013-02-25 09:45:00,
2013-02-25 04:50:00,29.8,21.6,30.05,NNE,22,0.0,0.0,71,0.00,,OVC,0.00,VWS V14.00,2013-02-25 09:50:00,
2013-02-25 04:55:00,29.8,21.6,30.06,WNW,292,0.0,0.0,71,0.00,,OVC,0.00,VWS V14.00,2013-02-25 09:55:00,
2013-02-25 05:00:00,29.8,21.6,30.06,NW,315,0.0,0.0,71,0.00,,OVC,0.00,VWS V14.00,2013-02-25 10:00:00,
2013-02-25 05:05:00,29.8,21.6,30.06,NNE,22,0.0,0.0,71,0.00,,OVC,0.00,VWS V14.00,2013-02-25 10:05:00,
2013-02-25 05:10:00,29.8,21.6,30.06,WNW,292,0.0,0.0,71,0.00,,OVC,0.00,VWS V14.00,2013-02-25 10:10:00,
2013-02-25 05:15:00,29.8,21.6,30.06,WNW,292,0.0,0.0,71,0.00,,OVC,0.00,VWS V14.00,2013-02-25 10:15:00,
2013-02-25 05:20:00,29.8,21.6,30.06,NW,315,0.0,0.0,71,0.00,,OVC,0.00,VWS V14.00,2013-02-25 10:20:00,
2013-02-25 05:25:00,29.8,21.9,30.07,WNW,292,0.0,0.0,72,0.00,,OVC,0.00,VWS V14.00,2013-02-25 10:25:00,
2013-02-25 05:30:00,29.6,21.7,30.07,NNW,338,0.6,0.6,72,0.00,,OVC,0.00,VWS V14.00,2013-02-25 10:30:00,
2013-02-25 05:35:00,29.6,21.7,30.07,NW,315,0.0,0.0,72,0.00,,OVC,0.00,VWS V14.00,2013-02-25 10:35:00,
2013-02-25 05:40:00,29.4,21.5,30.07,WNW,292,1.1,1.1,72,0.00,,OVC,0.00,VWS V14.00,2013-02-25 10:40:00,
2013-02-25 05:45:00,29.4,21.5,30.08,NW,315,0.0,0.0,72,0.00,,OVC,0.00,VWS V14.00,2013-02-25 10:45:00,
2013-02-25 05:50:00,29.4,21.5,30.08,WNW,292,0.0,0.0,72,0.00,,OVC,0.00,VWS V14.00,2013-02-25 10:50:00,
2013-02-25 05:55:00,29.3,21.4,30.07,NNW,338,0.0,0.0,72,0.00,,OVC,0.00,VWS V14.00,2013-02-25 10:55:00,
2013-02-25 06:00:00,29.3,21.4,30.08,North,0,0.0,0.0,72,0.00,,OVC,0.00,VWS V14.00,2013-02-25 11:00:00,
2013-02-25 06:05:00,29.3,21.7,30.07,North,0,0.0,0.0,73,0.00,,OVC,0.00,VWS V14.00,2013-02-25 11:05:00,
2013-02-25 06:10:00,29.3,21.7,30.07,WNW,292,0.0,0.0,73,0.00,,OVC,0.00,VWS V14.00,2013-02-25 11:10:00,
2013-02-25 06:15:00,29.3,21.7,30.07,North,0,0.0,0.0,73,0.00,,OVC,0.00,VWS V14.00,2013-02-25 11:15:00,
2013-02-25 06:20:00,29.1,21.5,30.07,NW,315,0.8,0.8,73,0.00,,OVC,0.00,VWS V14.00,2013-02-25 11:20:00,
2013-02-25 06:25:00,29.1,21.5,30.08,NNE,22,0.0,0.0,73,0.00,,OVC,0.00,VWS V14.00,2013-02-25 11:25:00,
2013-02-25 06:30:00,29.1,21.5,30.08,WNW,292,0.0,0.0,73,0.00,,OVC,0.00,VWS V14.00,2013-02-25 11:30:00,
2013-02-25 06:35:00,29.1,21.5,30.08,WNW,292,0.0,0.0,73,0.00,,OVC,0.00,VWS V14.00,2013-02-25 11:35:00,
2013-02-25 06:40:00,29.1,21.9,30.08,NW,315,0.0,0.0,74,0.00,,OVC,0.00,VWS V14.00,2013-02-25 11:40:00,
2013-02-25 06:45:00,29.1,21.9,30.09,WSW,248,0.0,0.0,74,0.00,,OVC,0.00,VWS V14.00,2013-02-25 11:45:00,
2013-02-25 06:50:00,29.3,22.1,30.09,WNW,292,0.0,0.0,74,0.00,,OVC,0.00,VWS V14.00,2013-02-25 11:50:00,
2013-02-25 06:55:00,29.4,22.1,30.09,West,270,0.0,0.0,74,0.00,,OVC,0.00,VWS V14.00,2013-02-25 11:55:00,
2013-02-25 07:00:00,29.6,22.4,30.09,West,270,0.0,0.0,74,0.00,,OVC,0.00,VWS V14.00,2013-02-25 12:00:00,
2013-02-25 07:05:00,30.0,22.7,30.10,WNW,292,0.0,0.0,74,0.00,,OVC,0.00,VWS V14.00,2013-02-25 12:05:00,
2013-02-25 07:10:00,30.3,23.0,30.10,WNW,292,0.0,0.0,74,0.00,,OVC,0.00,VWS V14.00,2013-02-25 12:10:00,
2013-02-25 07:15:00,31.1,23.8,30.10,WNW,292,0.0,0.0,74,0.00,,OVC,0.00,VWS V14.00,2013-02-25 12:15:00,
2013-02-25 07:20:00,32.7,25.0,30.11,NW,315,0.0,0.0,73,0.00,,OVC,0.00,VWS V14.00,2013-02-25 12:20:00,
2013-02-25 07:25:00,34.3,26.2,30.11,ENE,68,0.0,0.0,72,0.00,,OVC,0.00,VWS V14.00,2013-02-25 12:25:00,
2013-02-25 07:30:00,35.7,26.5,30.11,NW,315,0.8,0.8,69,0.00,,OVC,0.00,VWS V14.00,2013-02-25 12:30:00,
2013-02-25 07:35:00,37.2,27.3,30.11,NNE,22,0.0,0.0,67,0.00,,OVC,0.00,VWS V14.00,2013-02-25 12:35:00,
2013-02-25 07:40:00,38.1,27.8,30.12,WSW,248,0.0,0.0,66,0.00,,OVC,0.00,VWS V14.00,2013-02-25 12:40:00,
2013-02-25 07:45:00,38.8,27.3,30.12,WNW,292,0.0,0.0,63,0.00,,OVC,0.00,VWS V14.00,2013-02-25 12:45:00,
2013-02-25 07:50:00,39.3,28.2,30.12,West,270,0.2,0.2,64,0.00,,OVC,0.00,VWS V14.00,2013-02-25 12:50:00,
2013-02-25 07:55:00,39.9,28.0,30.12,NNW,338,0.0,0.0,62,0.00,,OVC,0.00,VWS V14.00,2013-02-25 12:55:00,
2013-02-25 08:00:00,40.6,28.2,30.12,WNW,292,0.0,0.0,61,0.00,,OVC,0.00,VWS V14.00,2013-02-25 13:00:00,
2013-02-25 08:05:00,40.4,27.6,30.12,West,270,0.0,0.0,60,0.00,,OVC,0.00,VWS V14.00,2013-02-25 13:05:00,
2013-02-25 08:10:00,40.8,28.0,30.12,WNW,292,2.0,2.0,60,0.00,,OVC,0.00,VWS V14.00,2013-02-25 13:10:00,
2013-02-25 08:15:00,41.1,28.3,30.12,WNW,292,2.2,2.2,60,0.00,,OVC,0.00,VWS V14.00,2013-02-25 13:15:00,
2013-02-25 08:20:00,41.5,27.8,30.12,WNW,292,3.1,3.1,58,0.00,,OVC,0.00,VWS V14.00,2013-02-25 13:20:00,
2013-02-25 08:25:00,41.5,27.8,30.12,WNW,292,0.0,0.0,58,0.00,,OVC,0.00,VWS V14.00,2013-02-25 13:25:00,
2013-02-25 08:30:00,41.9,28.2,30.12,WNW,292,0.0,0.0,58,0.00,,OVC,0.00,VWS V14.00,2013-02-25 13:30:00,
2013-02-25 08:35:00,42.0,28.3,30.12,WNW,292,0.0,0.0,58,0.00,,OVC,0.00,VWS V14.00,2013-02-25 13:35:00,
2013-02-25 08:40:00,42.4,28.7,30.12,NW,315,1.1,1.1,58,0.00,,OVC,0.00,VWS V14.00,2013-02-25 13:40:00,
2013-02-25 08:45:00,42.6,28.9,30.12,NNE,22,0.0,0.0,58,0.00,,OVC,0.00,VWS V14.00,2013-02-25 13:45:00,
2013-02-25 08:50:00,42.6,28.5,30.12,West,270,0.0,0.0,57,0.00,,OVC,0.00,VWS V14.00,2013-02-25 13:50:00,
2013-02-25 08:55:00,42.6,28.5,30.12,NE,45,8.2,8.2,57,0.00,,OVC,0.00,VWS V14.00,2013-02-25 13:55:00,
2013-02-25 09:00:00,42.6,28.5,30.12,West,270,0.4,3.1,57,0.00,,OVC,0.00,VWS V14.00,2013-02-25 14:00:00,
2013-02-25 09:05:00,42.9,28.7,30.12,NNE,22,0.0,6.0,57,0.00,,OVC,0.00,VWS V14.00,2013-02-25 14:05:00,
2013-02-25 09:10:00,43.3,28.7,30.13,NNW,338,0.0,0.0,56,0.00,,OVC,0.00,VWS V14.00,2013-02-25 14:10:00,
2013-02-25 09:15:00,43.5,28.9,30.12,NNE,22,1.5,1.5,56,0.00,,OVC,0.00,VWS V14.00,2013-02-25 14:15:00,
2013-02-25 09:20:00,43.5,28.9,30.12,NNE,22,7.6,7.6,56,0.00,,OVC,0.00,VWS V14.00,2013-02-25 14:20:00,
2013-02-25 09:25:00,43.5,28.9,30.13,NNE,22,0.0,0.0,56,0.00,,OVC,0.00,VWS V14.00,2013-02-25 14:25:00,
2013-02-25 09:30:00,43.7,29.0,30.12,NE,45,2.9,2.9,56,0.00,,OVC,0.00,VWS V14.00,2013-02-25 14:30:00,
2013-02-25 09:35:00,44.4,29.7,30.13,WSW,248,0.0,0.0,56,0.00,,OVC,0.00,VWS V14.00,2013-02-25 14:35:00,
2013-02-25 09:40:00,44.4,29.3,30.13,NNE,22,0.0,0.0,55,0.00,,OVC,0.00,VWS V14.00,2013-02-25 14:40:00,
2013-02-25 09:45:00,44.7,29.1,30.13,NNE,22,0.8,0.8,54,0.00,,OVC,0.00,VWS V14.00,2013-02-25 14:45:00,
2013-02-25 09:50:00,44.6,29.0,30.13,NNE,22,1.3,1.3,54,0.00,,OVC,0.00,VWS V14.00,2013-02-25 14:50:00,
2013-02-25 09:55:00,44.7,29.1,30.13,NNE,22,2.6,2.6,54,0.00,,OVC,0.00,VWS V14.00,2013-02-25 14:55:00,
2013-02-25 10:00:00,44.7,29.1,30.13,NE,45,2.4,2.4,54,0.00,,OVC,0.00,VWS V14.00,2013-02-25 15:00:00,
2013-02-25 10:05:00,45.1,29.0,30.13,NE,45,3.8,3.8,53,0.00,,OVC,0.00,VWS V14.00,2013-02-25 15:05:00,
2013-02-25 10:10:00,45.5,29.4,30.13,NE,45,0.0,0.0,53,0.00,,OVC,0.00,VWS V14.00,2013-02-25 15:10:00,
2013-02-25 10:15:00,45.8,29.7,30.13,NE,45,4.2,4.2,53,0.00,,OVC,0.00,VWS V14.00,2013-02-25 15:15:00,
2013-02-25 10:20:00,46.0,29.8,30.13,NE,45,0.0,0.0,53,0.00,,OVC,0.00,VWS V14.00,2013-02-25 15:20:00,
2013-02-25 10:25:00,46.2,29.6,30.13,NNW,338,1.5,1.5,52,0.00,,OVC,0.00,VWS V14.00,2013-02-25 15:25:00,
2013-02-25 10:30:00,46.5,29.4,30.13,NE,45,0.0,0.0,51,0.00,,OVC,0.00,VWS V14.00,2013-02-25 15:30:00,
2013-02-25 10:35:00,46.7,29.5,30.14,North,0,0.0,0.0,51,0.00,,OVC,0.00,VWS V14.00,2013-02-25 15:35:00,
2013-02-25 10:40:00,46.5,29.4,30.14,NNE,22,2.0,2.0,51,0.00,,OVC,0.00,VWS V14.00,2013-02-25 15:40:00,
2013-02-25 10:45:00,46.5,28.9,30.14,NNE,22,4.4,4.4,50,0.00,,OVC,0.00,VWS V14.00,2013-02-25 15:45:00,
2013-02-25 10:50:00,46.2,28.6,30.14,North,0,2.2,2.2,50,0.00,,OVC,0.00,VWS V14.00,2013-02-25 15:50:00,
2013-02-25 10:55:00,46.2,29.1,30.15,North,0,2.4,2.4,51,0.00,,OVC,0.00,VWS V14.00,2013-02-25 15:55:00,
2013-02-25 11:00:00,46.2,29.1,30.14,ESE,112,0.0,0.0,51,0.00,,OVC,0.00,VWS V14.00,2013-02-25 16:00:00,
2013-02-25 11:05:00,46.2,29.1,30.14,NE,45,0.8,0.8,51,0.00,,OVC,0.00,VWS V14.00,2013-02-25 16:05:00,
2013-02-25 11:10:00,46.5,29.4,30.13,East,90,0.0,0.0,51,0.00,,OVC,0.00,VWS V14.00,2013-02-25 16:10:00,
2013-02-25 11:15:00,46.9,29.7,30.13,NE,45,3.5,3.5,51,0.00,,OVC,0.00,VWS V14.00,2013-02-25 16:15:00,
2013-02-25 11:20:00,47.3,30.1,30.13,NNE,22,2.6,2.6,51,0.00,,OVC,0.00,VWS V14.00,2013-02-25 16:20:00,
2013-02-25 11:25:00,47.8,30.1,30.13,NNE,22,2.4,2.4,50,0.00,,OVC,0.00,VWS V14.00,2013-02-25 16:25:00,
2013-02-25 11:30:00,47.8,30.1,30.13,NE,45,2.6,2.6,50,0.00,,OVC,0.00,VWS V14.00,2013-02-25 16:30:00,
2013-02-25 11:35:00,47.3,29.1,30.13,NE,45,0.8,0.8,49,0.00,,OVC,0.00,VWS V14.00,2013-02-25 16:35:00,
2013-02-25 11:40:00,47.3,29.1,30.13,East,90,1.3,1.3,49,0.00,,OVC,0.00,VWS V14.00,2013-02-25 16:40:00,
2013-02-25 11:45:00,47.1,29.4,30.13,East,90,0.0,0.0,50,0.00,,OVC,0.00,VWS V14.00,2013-02-25 16:45:00,
2013-02-25 11:50:00,47.3,29.1,30.13,ENE,68,0.8,0.8,49,0.00,,OVC,0.00,VWS V14.00,2013-02-25 16:50:00,
2013-02-25 11:55:00,48.0,29.8,30.13,NE,45,2.9,2.9,49,0.00,,OVC,0.00,VWS V14.00,2013-02-25 16:55:00,
2013-02-25 12:00:00,47.8,29.1,30.14,NE,45,5.5,5.5,48,0.00,,OVC,0.00,VWS V14.00,2013-02-25 17:00:00,
2013-02-25 12:05:00,47.3,28.6,30.15,NNE,22,4.2,4.2,48,0.00,,OVC,0.00,VWS V14.00,2013-02-25 17:05:00,
2013-02-25 12:10:00,48.0,29.3,30.15,NNE,22,4.0,4.0,48,0.00,,OVC,0.00,VWS V14.00,2013-02-25 17:10:00,
2013-02-25 12:15:00,48.0,29.3,30.15,NNE,22,0.0,0.0,48,0.00,,OVC,0.00,VWS V14.00,2013-02-25 17:15:00,
2013-02-25 12:20:00,47.4,28.7,30.15,North,0,0.0,0.0,48,0.00,,OVC,0.00,VWS V14.00,2013-02-25 17:20:00,
2013-02-25 12:25:00,47.4,29.2,30.15,NNW,338,0.0,0.0,49,0.00,,OVC,0.00,VWS V14.00,2013-02-25 17:25:00,
2013-02-25 12:30:00,47.8,29.1,30.14,North,0,0.0,0.0,48,0.00,,OVC,0.00,VWS V14.00,2013-02-25 17:30:00,
2013-02-25 12:35:00,47.8,29.1,30.14,NE,45,0.8,0.8,48,0.00,,OVC,0.00,VWS V14.00,2013-02-25 17:35:00,
2013-02-25 12:40:00,47.3,28.6,30.14,NE,45,0.0,0.0,48,0.00,,OVC,0.00,VWS V14.00,2013-02-25 17:40:00,
2013-02-25 12:45:00,47.1,28.9,30.13,NNE,22,0.8,0.8,49,0.00,,OVC,0.00,VWS V14.00,2013-02-25 17:45:00,
2013-02-25 12:50:00,46.9,28.8,30.14,NNE,22,0.0,0.0,49,0.00,,OVC,0.00,VWS V14.00,2013-02-25 17:50:00,
2013-02-25 12:55:00,47.8,29.6,30.14,West,270,0.0,0.0,49,0.00,,OVC,0.00,VWS V14.00,2013-02-25 17:55:00,
2013-02-25 13:00:00,48.7,29.9,30.13,NNW,338,0.0,0.0,48,0.00,,OVC,0.00,VWS V14.00,2013-02-25 18:00:00,
2013-02-25 13:05:00,48.3,29.0,30.14,North,0,4.0,4.0,47,0.00,,OVC,0.00,VWS V14.00,2013-02-25 18:05:00,
2013-02-25 13:10:00,48.7,29.9,30.14,West,270,0.0,0.0,48,0.00,,OVC,0.00,VWS V14.00,2013-02-25 18:10:00,
2013-02-25 13:15:00,49.2,30.4,30.14,NNW,338,0.0,0.0,48,0.00,,OVC,0.00,VWS V14.00,2013-02-25 18:15:00,
2013-02-25 13:20:00,49.4,30.0,30.13,NNE,22,0.0,0.0,47,0.00,,OVC,0.00,VWS V14.00,2013-02-25 18:20:00,
2013-02-25 13:25:00,48.9,29.0,30.13,NNW,338,6.9,6.9,46,0.00,,OVC,0.00,VWS V14.00,2013-02-25 18:25:00,
2013-02-25 13:30:00,48.0,28.8,30.13,NE,45,0.6,0.6,47,0.00,,OVC,0.00,VWS V14.00,2013-02-25 18:30:00,
2013-02-25 13:35:00,47.8,28.6,30.13,NNW,338,0.0,0.0,47,0.00,,OVC,0.00,VWS V14.00,2013-02-25 18:35:00,
2013-02-25 13:40:00,47.8,28.6,30.13,WNW,292,0.0,0.0,47,0.00,,OVC,0.00,VWS V14.00,2013-02-25 18:40:00,
2013-02-25 13:45:00,48.0,28.8,30.14,NNE,22,0.0,0.0,47,0.00,,OVC,0.00,VWS V14.00,2013-02-25 18:45:00,
2013-02-25 13:50:00,48.7,29.9,30.14,NNE,22,0.0,0.0,48,0.00,,OVC,0.00,VWS V14.00,2013-02-25 18:50:00,
2013-02-25 13:55:00,49.6,30.7,30.13,West,270,1.1,1.7,48,0.00,,OVC,0.00,VWS V14.00,2013-02-25 18:55:00,
2013-02-25 14:00:00,49.6,30.2,30.13,North,0,4.4,4.4,47,0.00,,OVC,0.00,VWS V14.00,2013-02-25 19:00:00,
2013-02-25 14:05:00,49.2,29.9,30.13,WNW,292,0.0,0.0,47,0.00,,OVC,0.00,VWS V14.00,2013-02-25 19:05:00,
2013-02-25 14:10:00,49.1,29.8,30.14,WNW,292,1.7,1.7,47,0.00,,OVC,0.00,VWS V14.00,2013-02-25 19:10:00,
2013-02-25 14:15:00,49.1,30.3,30.14,WNW,292,0.0,0.0,48,0.00,,OVC,0.00,VWS V14.00,2013-02-25 19:15:00,
2013-02-25 14:20:00,48.9,30.1,30.14,North,0,0.0,0.0,48,0.00,,OVC,0.00,VWS V14.00,2013-02-25 19:20:00,
2013-02-25 14:25:00,48.7,29.9,30.14,WNW,292,0.0,0.0,48,0.00,,OVC,0.00,VWS V14.00,2013-02-25 19:25:00,
2013-02-25 14:30:00,48.7,29.9,30.14,West,270,0.0,0.0,48,0.00,,OVC,0.00,VWS V14.00,2013-02-25 19:30:00,
2013-02-25 14:35:00,48.9,30.1,30.14,NW,315,0.0,0.0,48,0.00,,OVC,0.00,VWS V14.00,2013-02-25 19:35:00,
2013-02-25 14:40:00,48.9,29.6,30.14,North,0,0.0,0.0,47,0.00,,OVC,0.00,VWS V14.00,2013-02-25 19:40:00,
2013-02-25 14:45:00,48.7,29.4,30.14,NNE,22,1.5,1.5,47,0.00,,OVC,0.00,VWS V14.00,2013-02-25 19:45:00,
2013-02-25 14:50:00,48.7,29.4,30.14,North,0,0.0,0.0,47,0.00,,OVC,0.00,VWS V14.00,2013-02-25 19:50:00,
2013-02-25 14:55:00,48.0,28.8,30.15,NE,45,3.5,3.5,47,0.00,,OVC,0.00,VWS V14.00,2013-02-25 19:55:00,
2013-02-25 15:00:00,47.6,28.9,30.15,North,0,2.2,2.2,48,0.00,,OVC,0.00,VWS V14.00,2013-02-25 20:00:00,
2013-02-25 15:05:00,47.6,28.9,30.15,NNW,338,4.4,4.4,48,0.00,,OVC,0.00,VWS V14.00,2013-02-25 20:05:00,
2013-02-25 15:10:00,47.6,28.9,30.15,WNW,292,0.0,0.0,48,0.00,,OVC,0.00,VWS V14.00,2013-02-25 20:10:00,
2013-02-25 15:15:00,47.6,28.9,30.16,NE,45,0.0,0.0,48,0.00,,OVC,0.00,VWS V14.00,2013-02-25 20:15:00,
2013-02-25 15:20:00,47.8,29.1,30.16,North,0,0.6,0.6,48,0.00,,OVC,0.00,VWS V14.00,2013-02-25 20:20:00,
2013-02-25 15:25:00,47.4,28.7,30.15,WNW,292,0.0,0.0,48,0.00,,OVC,0.00,VWS V14.00,2013-02-25 20:25:00,
2013-02-25 15:30:00,47.3,28.6,30.15,North,0,0.0,0.0,48,0.00,,OVC,0.00,VWS V14.00,2013-02-25 20:30:00,
2013-02-25 15:35:00,47.3,29.1,30.15,North,0,0.0,0.0,49,0.00,,OVC,0.00,VWS V14.00,2013-02-25 20:35:00,
2013-02-25 15:40:00,47.3,29.1,30.16,NW,315,0.0,0.0,49,0.00,,OVC,0.00,VWS V14.00,2013-02-25 20:40:00,
2013-02-25 15:45:00,46.9,28.8,30.15,NNE,22,0.0,0.0,49,0.00,,OVC,0.00,VWS V14.00,2013-02-25 20:45:00,
2013-02-25 15:50:00,46.5,28.4,30.15,NNE,22,0.0,0.0,49,0.00,,OVC,0.00,VWS V14.00,2013-02-25 20:50:00,
2013-02-25 15:55:00,46.2,28.1,30.16,NNE,22,0.0,0.0,49,0.00,,OVC,0.00,VWS V14.00,2013-02-25 20:55:00,
2013-02-25 16:00:00,46.2,28.6,30.16,North,0,0.0,0.0,50,0.00,,OVC,0.00,VWS V14.00,2013-02-25 21:00:00,
2013-02-25 16:05:00,46.0,28.4,30.16,NNE,22,0.0,0.0,50,0.00,,OVC,0.00,VWS V14.00,2013-02-25 21:05:00,
2013-02-25 16:10:00,46.0,28.4,30.16,NE,45,1.1,1.1,50,0.00,,OVC,0.00,VWS V14.00,2013-02-25 21:10:00,
2013-02-25 16:15:00,45.6,28.0,30.15,North,0,0.6,0.6,50,0.00,,OVC,0.00,VWS V14.00,2013-02-25 21:15:00,
2013-02-25 16:20:00,45.6,28.0,30.16,NNE,22,0.0,0.0,50,0.00,,OVC,0.00,VWS V14.00,2013-02-25 21:20:00,
2013-02-25 16:25:00,45.6,28.0,30.16,NNE,22,0.0,0.0,50,0.00,,OVC,0.00,VWS V14.00,2013-02-25 21:25:00,
2013-02-25 16:30:00,45.6,28.0,30.16,NNW,338,0.0,0.0,50,0.00,,OVC,0.00,VWS V14.00,2013-02-25 21:30:00,
2013-02-25 16:35:00,45.5,28.0,30.16,NNW,338,0.0,0.0,50,0.00,,OVC,0.00,VWS V14.00,2013-02-25 21:35:00,
2013-02-25 16:40:00,45.5,28.0,30.16,NNW,338,0.0,0.0,50,0.00,,OVC,0.00,VWS V14.00,2013-02-25 21:40:00,
2013-02-25 16:45:00,45.3,27.8,30.16,NNW,338,0.0,0.0,50,0.00,,OVC,0.00,VWS V14.00,2013-02-25 21:45:00,
2013-02-25 16:50:00,45.1,27.6,30.15,NNE,22,0.0,0.0,50,0.00,,OVC,0.00,VWS V14.00,2013-02-25 21:50:00,
2013-02-25 16:55:00,44.7,27.2,30.16,NE,45,0.0,0.0,50,0.00,,OVC,0.00,VWS V14.00,2013-02-25 21:55:00,
2013-02-25 17:00:00,44.6,27.6,30.15,WNW,292,0.0,0.0,51,0.00,,OVC,0.00,VWS V14.00,2013-02-25 22:00:00,
2013-02-25 17:05:00,44.6,27.6,30.16,North,0,0.0,0.0,51,0.00,,OVC,0.00,VWS V14.00,2013-02-25 22:05:00,
2013-02-25 17:10:00,44.4,27.4,30.16,North,0,0.0,0.0,51,0.00,,OVC,0.00,VWS V14.00,2013-02-25 22:10:00,
2013-02-25 17:15:00,44.4,27.4,30.16,North,0,3.8,3.8,51,0.00,,OVC,0.00,VWS V14.00,2013-02-25 22:15:00,
2013-02-25 17:20:00,44.0,27.0,30.16,NE,45,0.0,0.0,51,0.00,,OVC,0.00,VWS V14.00,2013-02-25 22:20:00,
2013-02-25 17:25:00,44.0,27.5,30.16,NE,45,0.0,0.0,52,0.00,,OVC,0.00,VWS V14.00,2013-02-25 22:25:00,
2013-02-25 17:30:00,43.8,27.3,30.16,NE,45,0.0,0.0,52,0.00,,OVC,0.00,VWS V14.00,2013-02-25 22:30:00,
2013-02-25 17:35:00,43.7,27.2,30.17,NE,45,0.0,0.0,52,0.00,,OVC,0.00,VWS V14.00,2013-02-25 22:35:00,
2013-02-25 17:40:00,43.5,27.1,30.17,NW,315,0.0,0.0,52,0.00,,OVC,0.00,VWS V14.00,2013-02-25 22:40:00,
2013-02-25 17:45:00,43.5,27.1,30.17,NW,315,0.0,0.0,52,0.00,,OVC,0.00,VWS V14.00,2013-02-25 22:45:00,
2013-02-25 17:50:00,43.5,27.1,30.17,NW,315,0.0,0.0,52,0.00,,OVC,0.00,VWS V14.00,2013-02-25 22:50:00,
2013-02-25 17:55:00,43.3,27.8,30.18,NW,315,0.0,0.0,54,0.00,,OVC,0.00,VWS V14.00,2013-02-25 22:55:00,
2013-02-25 18:00:00,43.3,27.3,30.18,NW,315,0.0,0.0,53,0.00,,OVC,0.00,VWS V14.00,2013-02-25 23:00:00,
2013-02-25 18:05:00,43.1,27.6,30.18,NW,315,0.0,0.0,54,0.00,,OVC,0.00,VWS V14.00,2013-02-25 23:05:00,
2013-02-25 18:10:00,42.9,27.4,30.18,NW,315,0.0,0.0,54,0.00,,OVC,0.00,VWS V14.00,2013-02-25 23:10:00,
2013-02-25 18:15:00,42.9,27.4,30.18,NW,315,0.0,0.0,54,0.00,,OVC,0.00,VWS V14.00,2013-02-25 23:15:00,
2013-02-25 18:20:00,42.9,27.4,30.18,NW,315,0.0,0.0,54,0.00,,OVC,0.00,VWS V14.00,2013-02-25 23:20:00,
2013-02-25 18:25:00,42.9,28.3,30.19,NW,315,0.0,0.0,56,0.00,,OVC,0.00,VWS V14.00,2013-02-25 23:25:00,
2013-02-25 18:30:00,42.6,28.0,30.19,NW,315,0.0,0.0,56,0.00,,OVC,0.00,VWS V14.00,2013-02-25 23:30:00,
2013-02-25 18:35:00,42.6,28.5,30.19,NW,315,0.0,0.0,57,0.00,,OVC,0.00,VWS V14.00,2013-02-25 23:35:00,
2013-02-25 18:40:00,42.6,28.0,30.19,NW,315,0.0,0.0,56,0.00,,OVC,0.00,VWS V14.00,2013-02-25 23:40:00,
2013-02-25 18:45:00,42.6,28.0,30.19,NW,315,0.0,0.0,56,0.00,,OVC,0.00,VWS V14.00,2013-02-25 23:45:00,
2013-02-25 18:50:00,42.4,27.4,30.20,NNE,22,0.0,0.0,55,0.00,,OVC,0.00,VWS V14.00,2013-02-25 23:50:00,
2013-02-25 18:55:00,42.4,27.4,30.20,NNE,22,0.0,0.0,55,0.00,,OVC,0.00,VWS V14.00,2013-02-25 23:55:00,
2013-02-25 19:00:00,42.4,27.4,30.20,NNE,22,0.0,0.0,55,0.00,,OVC,0.00,VWS V14.00,2013-02-26 00:00:00,
2013-02-25 19:05:00,42.4,28.3,30.20,NNE,22,0.0,0.0,57,0.00,,OVC,0.00,VWS V14.00,2013-02-26 00:05:00,
2013-02-25 19:10:00,42.4,27.8,30.21,North,0,0.0,0.0,56,0.00,,OVC,0.00,VWS V14.00,2013-02-26 00:10:00,
2013-02-25 19:15:00,42.2,27.6,30.21,NNW,338,0.0,0.0,56,0.00,,OVC,0.00,VWS V14.00,2013-02-26 00:15:00,
2013-02-25 19:20:00,42.0,27.5,30.21,NNW,338,0.0,0.0,56,0.00,,OVC,0.00,VWS V14.00,2013-02-26 00:20:00,
2013-02-25 19:25:00,42.0,27.5,30.21,NNW,338,0.0,0.0,56,0.00,,OVC,0.00,VWS V14.00,2013-02-26 00:25:00,
2013-02-25 19:30:00,42.0,27.5,30.21,NNW,338,0.0,0.0,56,0.00,,OVC,0.00,VWS V14.00,2013-02-26 00:30:00,
2013-02-25 19:35:00,42.0,27.5,30.21,NNW,338,0.0,0.0,56,0.00,,OVC,0.00,VWS V14.00,2013-02-26 00:35:00,
2013-02-25 19:40:00,42.0,27.9,30.21,NNW,338,0.0,0.0,57,0.00,,OVC,0.00,VWS V14.00,2013-02-26 00:40:00,
2013-02-25 19:45:00,42.0,28.3,30.21,North,0,0.0,0.0,58,0.00,,OVC,0.00,VWS V14.00,2013-02-26 00:45:00,
2013-02-25 19:50:00,41.9,29.0,30.21,NNW,338,0.0,0.0,60,0.00,,OVC,0.00,VWS V14.00,2013-02-26 00:50:00,
2013-02-25 19:55:00,41.9,29.0,30.22,NNW,338,0.0,0.0,60,0.00,,OVC,0.00,VWS V14.00,2013-02-26 00:55:00,
2013-02-25 20:00:00,41.7,29.3,30.21,NNW,338,0.0,0.0,61,0.00,,OVC,0.00,VWS V14.00,2013-02-26 01:00:00,
2013-02-25 20:05:00,41.7,29.3,30.21,NNW,338,0.0,0.0,61,0.00,,OVC,0.00,VWS V14.00,2013-02-26 01:05:00,
2013-02-25 20:10:00,41.5,29.1,30.21,NNW,338,0.0,0.0,61,0.00,,OVC,0.00,VWS V14.00,2013-02-26 01:10:00,
2013-02-25 20:15:00,41.5,29.5,30.21,NNW,338,0.0,0.0,62,0.00,,OVC,0.00,VWS V14.00,2013-02-26 01:15:00,
2013-02-25 20:20:00,41.5,29.5,30.22,NNW,338,0.0,0.0,62,0.00,,OVC,0.00,VWS V14.00,2013-02-26 01:20:00,
2013-02-25 20:25:00,41.3,29.3,30.22,NNW,338,0.0,0.0,62,0.00,,OVC,0.00,VWS V14.00,2013-02-26 01:25:00,
2013-02-25 20:30:00,41.3,29.7,30.22,NNW,338,0.0,0.0,63,0.00,,OVC,0.00,VWS V14.00,2013-02-26 01:30:00,
2013-02-25 20:35:00,41.1,29.5,30.22,NNW,338,0.0,0.0,63,0.00,,OVC,0.00,VWS V14.00,2013-02-26 01:35:00,
2013-02-25 20:40:00,41.1,29.5,30.22,NNW,338,0.0,0.0,63,0.00,,OVC,0.00,VWS V14.00,2013-02-26 01:40:00,
2013-02-25 20:45:00,41.0,29.4,30.22,NNW,338,0.0,0.0,63,0.00,,OVC,0.00,VWS V14.00,2013-02-26 01:45:00,
2013-02-25 20:50:00,41.0,29.8,30.22,NNW,338,0.0,0.0,64,0.00,,OVC,0.00,VWS V14.00,2013-02-26 01:50:00,
2013-02-25 20:55:00,41.0,29.8,30.22,NNW,338,0.0,0.0,64,0.00,,OVC,0.00,VWS V14.00,2013-02-26 01:55:00,
2013-02-25 21:00:00,40.8,30.0,30.22,NNW,338,0.0,0.0,65,0.00,,OVC,0.00,VWS V14.00,2013-02-26 02:00:00,
2013-02-25 21:05:00,40.8,30.0,30.22,NNW,338,0.0,0.0,65,0.00,,OVC,0.00,VWS V14.00,2013-02-26 02:05:00,
2013-02-25 21:10:00,40.8,30.0,30.22,NNW,338,0.0,0.0,65,0.00,,OVC,0.00,VWS V14.00,2013-02-26 02:10:00,
2013-02-25 21:15:00,40.6,29.8,30.22,NNW,338,0.0,0.0,65,0.00,,OVC,0.00,VWS V14.00,2013-02-26 02:15:00,
2013-02-25 21:20:00,40.6,30.1,30.23,NNW,338,0.0,0.0,66,0.00,,OVC,0.00,VWS V14.00,2013-02-26 02:20:00,
2013-02-25 21:25:00,40.6,30.1,30.23,NNW,338,0.0,0.0,66,0.00,,OVC,0.00,VWS V14.00,2013-02-26 02:25:00,
2013-02-25 21:30:00,40.4,30.0,30.23,NNW,338,0.0,0.0,66,0.00,,OVC,0.00,VWS V14.00,2013-02-26 02:30:00,
2013-02-25 21:35:00,40.2,29.8,30.23,NNW,338,0.0,0.0,66,0.00,,OVC,0.00,VWS V14.00,2013-02-26 02:35:00,
2013-02-25 21:40:00,40.2,30.1,30.23,NNW,338,0.0,0.0,67,0.00,,OVC,0.00,VWS V14.00,2013-02-26 02:40:00,
2013-02-25 21:45:00,40.2,30.1,30.23,NNW,338,0.0,0.0,67,0.00,,OVC,0.00,VWS V14.00,2013-02-26 02:45:00,
2013-02-25 21:50:00,40.1,30.0,30.23,NNW,338,0.0,0.0,67,0.00,,OVC,0.00,VWS V14.00,2013-02-26 02:50:00,
2013-02-25 21:55:00,39.9,29.9,30.23,NNW,338,0.0,0.0,67,0.00,,OVC,0.00,VWS V14.00,2013-02-26 02:55:00,
2013-02-25 22:00:00,39.9,29.9,30.23,NNW,338,0.0,0.0,67,0.00,,OVC,0.00,VWS V14.00,2013-02-26 03:00:00,
2013-02-25 22:05:00,39.9,29.9,30.22,NNW,338,0.0,0.0,67,0.00,,OVC,0.00,VWS V14.00,2013-02-26 03:05:00,
2013-02-25 22:10:00,39.9,30.2,30.23,NNW,338,0.0,0.0,68,0.00,,OVC,0.00,VWS V14.00,2013-02-26 03:10:00,
2013-02-25 22:15:00,39.7,30.0,30.23,NNW,338,0.0,0.0,68,0.00,,OVC,0.00,VWS V14.00,2013-02-26 03:15:00,
2013-02-25 22:20:00,39.3,30.0,30.23,NNW,338,0.0,0.0,69,0.00,,OVC,0.00,VWS V14.00,2013-02-26 03:20:00,
2013-02-25 22:25:00,39.3,30.0,30.22,NNW,338,0.0,0.0,69,0.00,,OVC,0.00,VWS V14.00,2013-02-26 03:25:00,
2013-02-25 22:30:00,39.0,29.7,30.22,NNW,338,0.0,0.0,69,0.00,,OVC,0.00,VWS V14.00,2013-02-26 03:30:00,
2013-02-25 22:35:00,38.8,29.9,30.22,NNW,338,0.0,0.0,70,0.00,,OVC,0.00,VWS V14.00,2013-02-26 03:35:00,
2013-02-25 22:40:00,38.4,29.8,30.22,NNW,338,0.0,0.0,71,0.00,,OVC,0.00,VWS V14.00,2013-02-26 03:40:00,
2013-02-25 22:45:00,38.4,29.8,30.23,NNW,338,0.0,0.0,71,0.00,,OVC,0.00,VWS V14.00,2013-02-26 03:45:00,
2013-02-25 22:50:00,38.3,29.7,30.23,NNW,338,0.0,0.0,71,0.00,,OVC,0.00,VWS V14.00,2013-02-26 03:50:00,
2013-02-25 22:55:00,38.1,29.5,30.23,NNW,338,0.0,0.0,71,0.00,,OVC,0.00,VWS V14.00,2013-02-26 03:55:00,
2013-02-25 23:00:00,38.1,29.9,30.23,NNW,338,0.0,0.0,72,0.00,,OVC,0.00,VWS V14.00,2013-02-26 04:00:00,
2013-02-25 23:05:00,37.9,29.7,30.23,NNW,338,0.0,0.0,72,0.00,,OVC,0.00,VWS V14.00,2013-02-26 04:05:00,
2013-02-25 23:10:00,37.7,29.8,30.22,NNW,338,0.0,0.0,73,0.00,,OVC,0.00,VWS V14.00,2013-02-26 04:10:00,
2013-02-25 23:15:00,37.5,29.6,30.22,NNW,338,0.0,0.0,73,0.00,,OVC,0.00,VWS V14.00,2013-02-26 04:15:00,
2013-02-25 23:20:00,37.2,29.4,30.23,NNW,338,0.0,0.0,73,0.00,,OVC,0.00,VWS V14.00,2013-02-26 04:20:00,
2013-02-25 23:25:00,36.6,28.8,30.22,NNW,338,0.0,0.0,73,0.00,,OVC,0.00,VWS V14.00,2013-02-26 04:25:00,
2013-02-25 23:30:00,36.5,29.0,30.22,NNW,338,0.0,0.0,74,0.00,,OVC,0.00,VWS V14.00,2013-02-26 04:30:00,
2013-02-25 23:35:00,36.3,28.8,30.23,NNW,338,0.0,0.0,74,0.00,,OVC,0.00,VWS V14.00,2013-02-26 04:35:00,
2013-02-25 23:40:00,35.9,28.8,30.22,NNW,338,0.0,0.0,75,0.00,,OVC,0.00,VWS V14.00,2013-02-26 04:40:00,
2013-02-25 23:45:00,35.7,28.6,30.22,NNW,338,0.0,0.0,75,0.00,,OVC,0.00,VWS V14.00,2013-02-26 04:45:00,
2013-02-25 23:50:00,35.4,28.6,30.22,NNW,338,0.0,0.0,76,0.00,,OVC,0.00,VWS V14.00,2013-02-26 04:50:00,
2013-02-25 23:55:00,35.2,28.4,30.22,NNW,338,0.0,0.0,76,0.00,,OVC,0.00,VWS V14.00,2013-02-26 04:55:00,